Hourly Data Report for October 19, 2014

All times are specified in Local Standard Time (LST). Add 1 hour to adjust for Daylight Saving Time where and when it is observed.

ST LEONARD CS
NEW BRUNSWICK

47°09'28.050" N
67°49'55.014" W
245.00 m
810I001
71019
WIY

Download Data

Hourly Data (October 2014)
Hourly Data Report for October 19, 2014
Temp Definition
°C
Dew Point Temp Definition
°C
Rel Hum Definition
%
Wind Dir Definition
10's deg

Wind Spd Definition
km/h
Visibility Definition
km
Stn Press Definition
kPa
Hmdx Definition


Wind Chill Definition


Weather Definition


TIME
00:00 12.0 11.5 97 16 1   96.65     LegendNANA
01:00 8.1 7.4 96 29 13   96.71     LegendNANA
02:00 6.9 5.7 93 31 14   96.81     LegendNANA
03:00 5.6 4.1 90 32 12   96.92     LegendNANA
04:00 4.8 3.0 88 32 10   96.99     LegendNANA
05:00 3.9 2.0 88 32 8   97.12     LegendNANA
06:00 3.2 1.7 90 31 6   97.20     LegendNANA
07:00 3.1 1.5 90 30 8   97.28     LegendNANA
08:00 3.1 1.7 91 29 2   97.42     LegendNANA
09:00 2.9 1.0 87 30 5   97.48     LegendNANA
10:00 3.2 0.2 81 32 6   97.52     LegendNANA
11:00 4.8 0.8 76 31 11   97.52     LegendNANA
12:00 5.2 -0.3 67 30 9   97.56     LegendNANA
13:00 5.3 -0.2 68 30 6   97.56     LegendNANA
14:00 5.3 -0.8 65 31 5   97.50     LegendNANA
15:00 5.3 -1.8 60 30 5   97.55     LegendNANA
16:00 5.0 -1.6 62 31 5   97.63     LegendNANA
17:00 4.5 -1.4 65 32 3   97.72     LegendNANA
18:00 4.1 -0.7 71 31 2   97.74     LegendNANA
19:00 3.8 -0.6 73 0 1   97.78     LegendNANA
20:00 3.7 -0.9 72 30 2   97.73     LegendNANA
21:00 3.6 -0.7 74 31 3   97.70     LegendNANA
22:00 3.4 -0.8 74 31 4   97.69     LegendNANA
23:00 3.2 -1.1 74 31 8   97.65     LegendNANA

Notes on Data Quality.

Legend

  • E = Estimated
  • M = Missing
  • NA = Not Available
  • ‡ = Partner data that is not subject to review by the National Climate Archives
Date modified: